Zurück zum Katalog

STARLINK-11427

AktivKommunikationVLEO
NORAD 62063·PAYLOAD·🇺🇸 United States

Gestartet Nov 24, 2024 von Vandenberg Space Force Base

Loading…

Nächste Überflüge (nächste 24 Stunden)

TLE

AktuellSource: CelesTrak SupGP

Epoche: Sep 14, 2026, 14:46 UTC

1 62063C 24217G   26257.61576389 -.00063237  00000+0 -52094-3 0  2572
2 62063  53.1574 220.1061 0001273  85.8117 285.8957 15.69738843    18

Verfolge STARLINK-11427 in Echtzeit mit AllMySat

Download on the App Store